Location: ????
(30.1475°N, 31.1342°E)
Time: 00:43:02
(UTC+00:00)

ARIANE 5 R/B - Pass Details

Date: 01 April 2023
Orbit: 748 x 794 km, 98.8° (Epoch: 29 May)

Event Time Altitude Azimuth Distance (km) Brightness Sun altitude
Rises 02:46:31 0° 360° (N) 3,283 5.9 -13.4°
Reaches altitude 10° 02:49:02 10° 351° (N) 2,356 5.1 -12.9°
Maximum altitude 02:53:37 32° 289° (WNW) 1,329 3.3 -11.9°
Drops below altitude 10° 02:58:12 10° 227° (SW) 2,355 4.5 -10.9°
Enters shadow 02:58:29 - 226° (SW) 2,456 4.6 -10.9°
